TimeCST,TemperatureF,Dew PointF,Humidity,Sea Level PressureIn,VisibilityMPH,Wind Direction,Wind SpeedMPH,Gust SpeedMPH,PrecipitationIn,Events,Conditions,WindDirDegrees,DateUTC
12:52 AM,17.1,10.9,77,29.80,10.0,North,20.7,35.7,0.00,,Overcast,350,2014-01-04 06:52:00
1:52 AM,18.0,12.9,81,29.87,10.0,NNW,10.4,-,N/A,,Overcast,340,2014-01-04 07:52:00
2:52 AM,18.0,12.0,78,29.90,10.0,North,12.7,-,0.00,,Overcast,350,2014-01-04 08:52:00
3:33 AM,17.6,8.6,68,29.86,10.0,NNW,25.3,34.5,N/A,,Scattered Clouds,330,2014-01-04 09:33:00
3:52 AM,15.1,8.1,74,29.95,10.0,NNW,28.8,34.5,N/A,,Mostly Cloudy,330,2014-01-04 09:52:00
3:59 AM,14.0,6.8,73,29.88,10.0,NNW,26.5,38.0,N/A,,Scattered Clouds,330,2014-01-04 09:59:00
4:52 AM,12.0,6.1,77,30.00,10.0,NW,13.8,-,N/A,,Clear,320,2014-01-04 10:52:00
5:52 AM,12.0,3.9,70,30.01,10.0,NNW,21.9,29.9,N/A,,Clear,330,2014-01-04 11:52:00
6:52 AM,10.9,3.0,70,30.04,10.0,NNW,16.1,-,N/A,,Clear,330,2014-01-04 12:52:00
7:52 AM,8.1,-0.0,70,30.06,10.0,NNW,19.6,-,N/A,,Clear,340,2014-01-04 13:52:00
8:52 AM,3.9,-2.9,73,30.13,10.0,NNW,15.0,21.9,N/A,,Clear,340,2014-01-04 14:52:00
9:52 AM,3.9,-4.0,70,30.18,10.0,North,8.1,-,N/A,,Clear,360,2014-01-04 15:52:00
10:52 AM,5.0,-7.1,58,30.19,10.0,NNW,20.7,-,N/A,,Clear,340,2014-01-04 16:52:00
11:52 AM,6.1,-6.0,58,30.21,10.0,NNW,23.0,28.8,N/A,,Clear,330,2014-01-04 17:52:00
12:52 PM,6.1,-5.1,60,30.22,10.0,NW,10.4,-,N/A,,Clear,320,2014-01-04 18:52:00
1:52 PM,6.1,-6.0,58,30.23,10.0,NNW,12.7,20.7,N/A,,Clear,340,2014-01-04 19:52:00
2:52 PM,5.0,-6.0,61,30.26,10.0,NW,18.4,-,N/A,,Overcast,320,2014-01-04 20:52:00
3:52 PM,3.9,-8.0,58,30.30,10.0,NNW,13.8,-,N/A,,Overcast,340,2014-01-04 21:52:00
4:52 PM,1.9,-8.0,63,30.34,10.0,NNW,16.1,26.5,N/A,,Overcast,340,2014-01-04 22:52:00
5:52 PM,1.0,-9.0,63,30.35,10.0,NNW,11.5,-,N/A,,Clear,330,2014-01-04 23:52:00
6:52 PM,-2.0,-9.9,69,30.37,10.0,NW,9.2,-,N/A,,Clear,310,2014-01-05 00:52:00
7:52 PM,-5.1,-13.0,69,30.41,10.0,NW,8.1,-,N/A,,Clear,320,2014-01-05 01:52:00
8:52 PM,-7.1,-14.1,72,30.43,10.0,WNW,3.5,-,N/A,,Clear,290,2014-01-05 02:52:00
9:52 PM,-7.1,-14.1,72,30.44,10.0,NW,3.5,-,N/A,,Overcast,310,2014-01-05 03:52:00
10:52 PM,-7.1,-13.0,75,30.44,10.0,NW,5.8,-,N/A,,Overcast,320,2014-01-05 04:52:00
11:52 PM,-6.0,-11.0,79,30.43,10.0,Calm,Calm,-,N/A,,Scattered Clouds,0,2014-01-05 05:52:00